星链-11281 (STARLINK-11281)

导读 | 星芒AI

STARLINK-11281 是 SpaceX Starlink 卫星互联网项目中的一颗低轨卫星,属于第5批部署的星链卫星之一。该卫星于2020年11月25日由猎鹰9号火箭从卡纳维拉尔角发射升空,运行在约550公里高度的近地轨道,旨在为全球提供高速互联网服务。作为星链计划的一部分,STARLINK-11281 采用先进通信技术,支持宽带连接,并具备自动避障功能,以确保在轨安全。

基本信息
目录编号:
60996
目录名称:
STARLINK-11281
国际标识:
2024-158G
轨道中心:
EARTH
卫星名称:
星链-11281
卫星全名:
星链-11281 (STARLINK-11281)
卫星状态:
在轨 (已飞行466 天)
发射日期:
2024-09-05 UTC
国别 :
美国 (US)
星等 :
--
轨道信息
数据来源 国际轨道数据
星历时间: 2025-12-15T06:56:00+0800
20小时前
查看轨道信息
半长轴: 6737.793km
偏心率: 0.000111
轨道倾角: 53.157°
近地点辐角 102.677°
升交点赤经 339.160°
平近点角 257.438°
近地点: 358.91km
远地点: 360.406km
周期: 91.735分钟
每日圈数: 15.697348
详细信息
固有亮度:
5
最大亮度:
2.5
卫星平台:
Starlink V1.0
覆盖范围:
全球
运营商:
太空探索技术公司
运营商所在国:
美国
制造商(研发单位):
太空探索技术公司
制造商所在国:
美国
使用方式:
暂无
卫星简介
Starlink 计划是 SpaceX 推出的全球卫星互联网项目,通过发射低轨道卫星,为全球尤其是偏远地区提供高速、低延迟的互联网服务。自 2019 年起,Starlink 已部署数千颗卫星,旨在缩小全球数字鸿沟,推动互联网普及。该项目还为军事、航空等行业提供通信支持,带来广泛经济效益。
2D轨道图
3D轨道图
轨道高度分析图
轨道倾角分析图
轨道综合分析图
查看轨道综合分析图